Regional Weather Roundup
Issued by NWS Cleveland, OH

Home | Current Version | Previous Version | Graphics & Text | Print | Product List | Glossary On
Versions: 1 2 3 4 5 6 7 8 9 10 11 12 13 14 15 16 17 18 19 20 21 22 23 24 25 26 27 28 29 30 31 32 33 34 35 36 37 38 39 40 41 42 43 44 45 46 47 48 49 50
000
ASUS41 KCLE 241102
RWRCLE
OHIO REGIONAL WEATHER ROUNDUP
NATIONAL WEATHER SERVICE CLEVELAND, OH
700 AM EDT SUN JUL 24 2016

NOTE: "FAIR" INDICATES FEW OR NO CLOUDS BELOW 12,000 FEET WITH NO
SIGNIFICANT WEATHER AND/OR OBSTRUCTIONS TO VISIBILITY.

OHZ001>008-015>018-024>027-034-035-043-044-241200-
   NORTHWEST OHIO

CITY           SKY/WX    TMP DP  RH WIND       PRES   REMARKS
DEFIANCE       CLOUDY    76  69  79 SE3       29.95F
FINDLAY        CLOUDY    75  70  84 SW3       29.97S
TOLEDO EXPRESS CLOUDY    74  72  93 SE3       29.94F
TOLEDO EXEC    CLOUDY    75  70  84 S5        29.96F
LIMA           CLOUDY    74  73  97 S6        29.99F
$$

OHZ009>014-019>023-028>033-038-089-241200-
   NORTHEAST OHIO

CITY           SKY/WX    TMP DP  RH WIND       PRES   REMARKS
CLE-HOPKINS    CLOUDY    75  61  61 S6        30.01S
CLE-LAKEFRONT  CLOUDY    76  61  59 SE12      29.98S
CUY CO. ARPT   MOCLDY    75  63  64 S9        30.01
LORAIN-ELYRIA  MOCLDY    72  63  73 S5        30.00S
ASHTABULA      CLEAR     64  62  93 SE3       30.02F
AKRON-CANTON   MOCLDY    73  61  65 SE6       30.03S
WOOSTER        CLOUDY    69  66  90 CALM      30.03S
MANSFIELD      MOCLDY    74  66  76 SE8       30.02F
YOUNGSTOWN     PTCLDY    63  60  90 SE5       30.03S
$$

OHZ042-051>053-060>062-070>072-077>081-241200-
  SOUTHWEST OHIO

CITY           SKY/WX    TMP DP  RH WIND       PRES   REMARKS
CINC-COVINGTON MOCLDY    76  74  93 CALM      30.01S
CINC-LUNKEN    PTCLDY    73  73 100 CALM      30.01R
HAMILTON       PTCLDY    73  71  93 CALM      30.01S FOG
DAYTON         MOCLDY    74  71  91 S7        30.01F
WRIGHT-PAT AFB PTCLDY    74  74 100 SE3       30.00F
DAYTON GENERAL PTCLDY    73  70  90 CALM      30.01S
WILMINGTON     PTCLDY    72  71  97 SW3       30.02R FOG
$$

OHZ036-037-039>041-045>050-054>059-063>069-073>076-082>088-241200-
  CENTRAL AND SOUTHEAST OHIO

CITY           SKY/WX    TMP DP  RH WIND       PRES   REMARKS
COLUMBUS       CLOUDY    74  72  93 CALM      30.00R
OSU AIRPORT    CLOUDY    74  72  93 E3        30.00S
BOLTON FIELD   MOCLDY    72  72 100 CALM      30.01F
RICKENBACK AFB MOCLDY    72  72  98 CALM      30.00S
NEWARK         CLOUDY    70  69  97 CALM      30.02R FOG
MARION         CLOUDY    74  71  91 S6        30.01F
LANCASTER      MOCLDY    70  69  97 N3        30.02R FOG
ZANESVILLE     CLOUDY    72  69  90 CALM      30.01S
NEW PHILLY     CLEAR     71  66  84 CALM      30.02S
$$



USA.gov is the U.S. government's official web portal to all federal, state and local government web resources and services.